Terminal Aerodrome Forecast
Issued by NWS

Home | Current Version | Previous Version | Text Only | Print | Product List | Glossary On
Versions: 1 2 3 4 5 6 7 8 9 10 11 12 13 14 15 16 17 18 19 20 21 22 23 24 25 26 27 28 29 30 31 32 33 34 35 36 37 38 39 40 41 42 43 44 45 46 47 48 49 50
000
FTUS42 KMFL 262324
TAFFXE
TAF
KFXE 262324Z 2700/2724 12012KT P6SM FEW025 SCT070
     FM270300 11007KT P6SM SCT050
     FM271400 15010KT P6SM SCT035 SCT060
     FM271700 14012G18KT P6SM SCT030 SCT060=

USA.gov is the U.S. government's official web portal to all federal, state and local government web resources and services.